Rbgn^[z[y[W
メイン
   新天体発見情報
     Comet P/2021 R4 (Wierzchos)
投稿するにはまず登録を

フラット表示 前のトピック | 次のトピック
投稿者 スレッド
佐藤裕久
投稿日時: 2021-9-27 13:46
モデレータ
登録日: 2005-6-12
居住地: 日本
投稿: 2689
オンライン
Comet P/2021 R4 (Wierzchos)

Kacper W. Wierzchos (Jet推進研究所: JPL, アリゾナ大学)の通報によると、9月6日、南アリゾナに
あるMt Lemmonの1.5-m 反射望遠鏡で得たCCD画像から彗星を発見した。
この彗星は、6"のコマとp.a.225°に12" のまっすぐな尾が見られた。
9月4.4日UT、HaleakalaにあるPan-STARRS2 1.8-m Ritchey-Chretien反射望遠鏡で得た一夜の観測(光度
は21.3-21.6等)がPan-STARRSチームから彗星状の外観の注記なしに小惑星センターに提出されていた。
R. Weryk (西オンタリオ大学,物理および天文学科)は、その後再調査し4枚の45秒w-バンドサーベイ画像
から1".3のシーイングで2".4(半値全幅:FWHM)の拡散したコマとp.a. 210°に6"のまっすぐな尾が見え
ると報告した。
小惑星センターのPCCP webpageに公表後、佐藤英貴氏(東京都文京区, 9月7.4日, 60秒露出20枚の
スタック, 0.43-m f/6.8 アストログラフ, Mayhill近郊, ニューメキシコ州, 米国, 遠隔操作: 強く
集光した8"のコマが見え、p.a. 190 °に10" の尾の気配がある。5".7の円形範囲で測定した光度は
20.7等であった)らCCD位置観測者によって彗星状と観測された。

彗星機能の報告は次の通り、

OC   Date        Reporter           Coma    Tail    PA          Exposures
F52  2021-09-04  R. Weryk           1".1      6"    210           4x45s
H06  2021-09-07  H. Sato            8"       19"    190          20x60s
A71  2021-09-08  M. Jaeger         17"                           18x180s
G96  2021-09-09  D. Rankin          5"        8"    210

発見位置は次のとおり、

     2021 UT             R.A. (2000) Decl.       Mag.   Observer
     Sept. 6.40246    0 23 09.13   +27 46 32.3   21.1   Wierzchos
           6.40817    0 23 08.96   +27 46 36.3            "
           6.41388    0 23 08.75   +27 46 40.7   20.6     "
           6.41959    0 23 08.54   +27 46 45.3   20.9     "
           6.46138    0 23 06.92   +27 47 15.3   20.3     "
           6.46563    0 23 06.79   +27 47 17.7   20.7     "
           6.46980    0 23 06.62   +27 47 20.5   20.4     "

MPCの楕円軌道要素、位置推算表は次のとおり、

Orbital elements:
    P/2021 R4 (Wierzchos)                                                       
Epoch 2021 Nov. 2.0 TT = JDT 2459520.5                                          
T 2021 Oct. 13.66695 TT                                 Rudenko                 
q   2.3257674            (2000.0)            P               Q                  
n   0.07408230     Peri.   56.54371     +0.91737973     -0.32853147             
a   5.6146983      Node   321.24667     +0.12142642     +0.76861148             
e   0.5857716      Incl.   21.03469     +0.37903833     +0.54891116             
P  13.3                                                                         
From 33 observations 2021 Sept. 4-11, mean residual 0".4.                       
                                                                                
    P/2021 R4 (Wierzchos)                                                       
Epoch 2035 Feb. 2.0 TT = JDT 2464360.5                                          
T 2035 Jan. 30.04466 TT                                 Rudenko                 
q   2.3382156            (2000.0)            P               Q                  
n   0.07338443     Peri.   56.39479     +0.91930349     -0.32297202             
a   5.6502383      Node   321.05944     +0.11731163     +0.77032142             
e   0.5861740      Incl.   20.96475     +0.37565820     +0.54981268             
P  13.4                                                                         
From 33 observations 2021 Sept. 4-11, mean residual 0".4.                       
                                                                                
    P/2021 R4 (Wierzchos)                                                       
Epoch 2021 July 5.0 TT = JDT 2459400.5                                          
T 2021 Oct. 13.64694 TT                                 Rudenko                 
q   2.3257600            (2000.0)            P               Q                  
n   0.07398574     Peri.   56.53767     +0.91740683     -0.32845607             
a   5.6195821      Node   321.24791     +0.12135866     +0.76861438             
e   0.5861329      Incl.   21.03524     +0.37899443     +0.54895222             
P  13.3                                                                         
From 33 observations 2021 Sept. 4-11, mean residual 0".4.                       
                                                                                
Ephemeris:
Date    TT    R. A. (2000) Decl.     Delta      r    Elong.  Phase   m1
2021 08 12    00 29 40.0 +21 38 56   1.6901  2.3874   122.0    21.1  20.9
...
2021 08 27    00 27 53.8 +25 28 07   1.5537  2.3617   133.0    18.2  20.7
...
2021 09 04    00 24 29.7 +27 16 37   1.4966  2.3508   138.7    16.4  20.6
...
2021 09 10    00 20 53.8 +28 28 40   1.4619  2.3438   142.7    15.1  20.5
2021 09 11    00 20 13.2 +28 39 46   1.4568  2.3428   143.3    14.9  20.5
2021 09 12    00 19 31.3 +28 50 36   1.4520  2.3418   143.9    14.7  20.5
...
2021 09 18    00 14 58.1 +29 49 28   1.4272  2.3363   147.2    13.5  20.5
...
2021 09 26    00 08 11.8 +30 50 26   1.4064  2.3308   150.3    12.3  20.4
...
2021 10 11    23 55 25.6 +31 47 51   1.4054  2.3259   150.3    12.3  20.4

(MPEC 2021-R256、CBET 5034)

フラット表示 前のトピック | 次のトピック

題名 投稿者 日時
 » Comet P/2021 R4 (Wierzchos) 佐藤裕久 2021-9-27 13:46

投稿するにはまず登録を
 
© 1999 Tsutomu Seki.